Regional Weather Roundup
Issued by NWS Charleston, SC

Home | Current Version | Previous Version | Text Only | Print | Product List | Glossary On
Versions: 1 2 3 4 5 6 7 8 9 10 11 12 13 14 15 16 17 18 19 20 21 22 23 24 25 26 27 28 29 30 31 32 33 34 35 36 37 38 39 40 41 42 43 44 45 46 47 48 49 50
000
ASUS42 KCHS 260125
RWRCHS

REGIONAL WEATHER ROUNDUP
NATIONAL WEATHER SERVICE CHARLESTON SC
900 PM EDT SAT OCT 25 2014

NOTE: "FAIR" INDICATES FEW OR NO CLOUDS BELOW 12,000 FEET WITH NO
SIGNIFICANT WEATHER AND/OR OBSTRUCTIONS TO VISIBILITY.

NOT ALL STATIONS ARE QUALITY CONTROLLED BY THE NATIONAL
WEATHER SERVICE. USE DATA WITH CAUTION...ESPECIALLY
DEWPOINT OBSERVATIONS.

SCZ027-030-031-034>040-042>050-260200-
...SOUTH CAROLINA...

CITY           SKY/WX    TMP DP  RH WIND       PRES   REMARKS
N CHARLESTON   CLEAR     58  50  75 CALM      29.97S
WATERFRONT PRK   N/A     64 N/A N/A W3          N/A
FORT JOHNSON   NOT AVBL
JOHNS ISLAND   CLEAR     57  54  88 CALM      29.97F
PINOPOLIS      NOT AVBL
MONCKS CORNER  FAIR      54  54 100 CALM      29.96F
SUMMERVILLE    FAIR      54  54 100 CALM      29.97F
BEAUFORT MCAS  CLEAR     58  51  78 SW3       29.99R
BEAUFORT ARPT  FAIR      57  54  88 CALM      29.98S
HILTON HEAD IS   N/A     55  54  94 CALM      30.00R
GEORGETOWN     NOT AVBL
WALTERBORO     CLEAR     54 N/A N/A CALM      29.98S
ORANGEBURG     CLEAR     54  49  83 CALM      29.97S
BARNWELL       FAIR      54  48  82 CALM      29.99S
AIKEN          FAIR      55  46  71 CALM      30.02S
MANNING        FAIR      52  52 100 CALM      29.96S
KINGSTREE      NOT AVBL
COLUMBIA       CLEAR     56  50  80 CALM      29.97S
SUMTER         CLEAR     57  50  76 SW1       29.95S
FLORENCE       CLEAR     58  45  62 W5        29.94F
MYRTLE BEACH   CLEAR     57  46  67 CALM      29.95S
N MYRTLE BEACH CLEAR     53  48  83 CALM      29.94S

$$

GAZ063-065-086>088-099>101-113>116-118-119-134-136>141-150-260200-
...GEORGIA...

CITY           SKY/WX    TMP DP  RH WIND       PRES   REMARKS
SAVANNAH ARPT  CLEAR     60  51  72 CALM      29.99S
HUNTER AAF     CLEAR     58  52  80 CALM      29.97S
FORT STEWART   CLEAR     56  51  83 CALM      29.98R
STATESBORO     NOT AVBL
SYLVANIA       CLEAR     60  57  91 CALM      30.00S
CLAXTON        FAIR      55  55 100 CALM      30.00R
THOMSON        CLEAR     56  56 100 CALM      30.04R
AUGUSTA-BUSH   CLEAR     53  41  63 CALM      29.98F
AUGUSTA-DANIEL CLEAR     68  44  42 CALM      29.99F
SWAINSBORO     FAIR      59  52  77 MISG      30.01S
VIDALIA        CLEAR     61  52  72 NW3       30.01R
ALMA           CLEAR     54  51  90 CALM      30.01R FOG
WAYCROSS       CLEAR     60  56  85 CALM      30.01R
JESUP          FAIR      57  54  88 CALM      30.00S
BRUNSWICK      CLEAR     55  54  94 CALM      30.01S
SAINT SIMONS   CLEAR     60  53  77 CALM      30.00R

$$

SCZ027-028-034-036>038-045-046-048>050-GAZ119-141-260200-
...LAKE AND SUPPLEMENTAL COASTAL OBSERVATIONS...

STATION/POSITION TIME  TEMP    WIND        PRES    WAVE   SWELL
                       AIR SEA DIR/SP/G            HT/PER HT/PER/DIR
                 (UTC) (F)     (DEG/KT/KT) (MB)    (FT/S) (FT/S/D)
UPR LAKE MARION  NOT AVBL
WINYAH BAY       0100   60        CALM     1014.0S
LAKE MURRAY      0000   65     290/  3/  4 1014.2S
ACE BASIN NERRS  0100   56        CALM     1015.0S
FORT PULASKI     0100   65     180/  3/  3 1015.7R
SAPELO ISLAND    NOT AVBL

$$

ANZ835-935-AMZ111-154-330-350-352-354-374-450-454-472-260200-
...C-MAN AND BUOY OBSERVATIONS...

STATION/POSITION TIME  TEMP    WIND        PRES    WAVE   SWELL
                       AIR SEA DIR/SP/G            HT/PER HT/PER/DIR
                 (UTC) (F)     (DEG/KT/KT) (MB)    (FT/S) (FT/S/D)
FOLLY BEACH CMAN 0100   64     250/  4/  4 1015.4R
BUOY 41004       0100   71 77  290/ 10/ 12 1014.6R   2/10   2/10
BUOY 41008       0100   71 75   20/  4/  6 1015.6R   1/ 9   2/100/ 9
5E ST. MARYS GA  0100      75                N/A     2/ 9
FRYING PAN BUOY  0100   70 74  260/ 10/ 14 1014.9R   2/10   2/ 80/10
BUOY 41025       0100   67     250/ 14/ 17 1012.1F   3/ 9   2/ 70/ 9
CAPE LOOKOUT NC  0100   67     250/  9/ 10 1012.5F
BUOY 41002       NOT AVBL
BUOY 41010       0100   76 82  360/ 12/ 16 1013.8R   4/ 5   2/100/ 7
BUOY 41012       NOT AVBL
ST AUGUSTINE FL  0100   71      10/  7/  8 1016.6R
CAPERS NEARSHORE NOT AVBL
FRIPP NEARSHORE  NOT AVBL


$$



USA.gov is the U.S. government's official web portal to all federal, state and local government web resources and services.